contact:dominique.lefevre@mio.osupytheas.fr, maurice.libes@osupytheas.fr, didier.mallarino@osupytheas.fr
Project:EMSO http://www.emso-fr.org/EMSO-France
Depth: 2436.0 m
Title:EMSO Ligure Ouest : Data MII capteur MICROCAT
DateTime_Computer,Latitude,Longitude,Temperature,Conductivity,Pressure,DateTime_Instrument
DateTime_Computer,Latitude,Longitude,degC,S m-1,dbar,DateTime_Instrument
2023-06-30T00:02:35Z,42.805,6.029,13.3024,4.60084,2470.717,2023-6-30T02:04:51Z
2023-06-30T00:05:39Z,42.805,6.029,13.3027,4.60085,2470.73,2023-6-30T02:07:54Z
2023-06-30T00:08:42Z,42.805,6.029,13.3026,4.60084,2470.74,2023-6-30T02:10:57Z
2023-06-30T00:11:45Z,42.805,6.029,13.3024,4.60084,2470.717,2023-6-30T02:14:00Z
2023-06-30T00:14:48Z,42.805,6.029,13.3027,4.60085,2470.717,2023-6-30T02:17:03Z
2023-06-30T00:17:51Z,42.805,6.029,13.3025,4.60085,2470.693,2023-6-30T02:20:06Z
2023-06-30T00:20:54Z,42.805,6.029,13.3024,4.60084,2470.74,2023-6-30T02:23:09Z
2023-06-30T00:23:57Z,42.805,6.029,13.3025,4.60084,2470.74,2023-6-30T02:26:12Z
2023-06-30T00:27:00Z,42.805,6.029,13.3027,4.60084,2470.74,2023-6-30T02:29:16Z
2023-06-30T00:30:03Z,42.805,6.029,13.3024,4.60084,2470.74,2023-6-30T02:32:19Z
2023-06-30T00:33:06Z,42.805,6.029,13.3027,4.60085,2470.74,2023-6-30T02:35:22Z
2023-06-30T00:36:09Z,42.805,6.029,13.3026,4.60085,2470.74,2023-6-30T02:38:25Z
2023-06-30T00:39:13Z,42.805,6.029,13.3024,4.60084,2470.717,2023-6-30T02:41:28Z
2023-06-30T00:42:16Z,42.805,6.029,13.3025,4.60084,2470.763,2023-6-30T02:44:31Z
2023-06-30T00:45:19Z,42.805,6.029,13.3026,4.60084,2470.74,2023-6-30T02:47:34Z
2023-06-30T00:48:22Z,42.805,6.029,13.3024,4.60084,2470.707,2023-6-30T02:50:37Z
2023-06-30T00:51:25Z,42.805,6.029,13.3028,4.60086,2470.74,2023-6-30T02:53:40Z
2023-06-30T00:54:28Z,42.805,6.029,13.3027,4.60084,2470.703,2023-6-30T02:56:43Z
2023-06-30T00:57:31Z,42.805,6.029,13.3026,4.60085,2470.717,2023-6-30T02:59:46Z
2023-06-30T01:00:34Z,42.805,6.029,13.3024,4.60084,2470.74,2023-6-30T03:02:49Z
2023-06-30T01:03:37Z,42.805,6.029,13.3029,4.60085,2470.74,2023-6-30T03:05:53Z
2023-06-30T01:06:40Z,42.805,6.029,13.3027,4.60084,2470.763,2023-6-30T03:08:56Z
2023-06-30T01:09:43Z,42.805,6.029,13.3026,4.60084,2470.74,2023-6-30T03:11:59Z
2023-06-30T01:12:46Z,42.805,6.029,13.3024,4.60083,2470.777,2023-6-30T03:15:02Z
2023-06-30T01:15:50Z,42.805,6.029,13.3022,4.60085,2470.74,2023-6-30T03:18:05Z
2023-06-30T01:18:53Z,42.805,6.029,13.3026,4.60086,2470.763,2023-6-30T03:21:08Z
2023-06-30T01:21:56Z,42.805,6.029,13.3024,4.60085,2470.787,2023-6-30T03:24:11Z
2023-06-30T01:24:59Z,42.805,6.029,13.3026,4.60086,2470.763,2023-6-30T03:27:14Z
2023-06-30T01:28:02Z,42.805,6.029,13.3026,4.60085,2470.74,2023-6-30T03:30:17Z
2023-06-30T01:31:05Z,42.805,6.029,13.3023,4.60087,2470.74,2023-6-30T03:33:20Z
2023-06-30T01:34:08Z,42.805,6.029,13.3027,4.60085,2470.763,2023-6-30T03:36:23Z
2023-06-30T01:37:11Z,42.805,6.029,13.3026,4.60088,2470.8,2023-6-30T03:39:26Z
2023-06-30T01:40:14Z,42.805,6.029,13.3024,4.60085,2470.777,2023-6-30T03:42:30Z
2023-06-30T01:43:17Z,42.805,6.029,13.3026,4.60085,2470.763,2023-6-30T03:45:33Z
2023-06-30T01:46:20Z,42.805,6.029,13.3030,4.60086,2470.8,2023-6-30T03:48:36Z
2023-06-30T01:49:23Z,42.805,6.029,13.3023,4.60084,2470.787,2023-6-30T03:51:39Z
2023-06-30T01:52:26Z,42.805,6.029,13.3024,4.60085,2470.777,2023-6-30T03:54:42Z
2023-06-30T01:55:30Z,42.805,6.029,13.3026,4.60084,2470.777,2023-6-30T03:57:45Z
2023-06-30T01:58:33Z,42.805,6.029,13.3024,4.60086,2470.763,2023-6-30T04:00:48Z
2023-06-30T02:01:36Z,42.805,6.029,13.3028,4.60086,2470.763,2023-6-30T04:03:51Z
2023-06-30T02:04:39Z,42.805,6.029,13.3028,4.60085,2470.777,2023-6-30T04:06:54Z
2023-06-30T02:07:42Z,42.805,6.029,13.3024,4.60085,2470.777,2023-6-30T04:09:57Z
2023-06-30T02:10:45Z,42.805,6.029,13.3027,4.60085,2470.777,2023-6-30T04:13:00Z
2023-06-30T02:13:48Z,42.805,6.029,13.3024,4.60085,2470.74,2023-6-30T04:16:03Z
2023-06-30T02:16:51Z,42.805,6.029,13.3028,4.60084,2470.763,2023-6-30T04:19:06Z
2023-06-30T02:19:54Z,42.805,6.029,13.3026,4.60085,2470.74,2023-6-30T04:22:10Z
2023-06-30T02:22:57Z,42.805,6.029,13.3029,4.60084,2470.777,2023-6-30T04:25:13Z
2023-06-30T02:26:00Z,42.805,6.029,13.3028,4.60084,2470.74,2023-6-30T04:28:16Z
2023-06-30T02:29:03Z,42.805,6.029,13.3024,4.60085,2470.763,2023-6-30T04:31:19Z
2023-06-30T02:32:07Z,42.805,6.029,13.3024,4.60084,2470.763,2023-6-30T04:34:22Z
2023-06-30T02:35:10Z,42.805,6.029,13.3025,4.60087,2470.777,2023-6-30T04:37:25Z
2023-06-30T02:38:13Z,42.805,6.029,13.3026,4.60084,2470.763,2023-6-30T04:40:28Z
2023-06-30T02:41:16Z,42.805,6.029,13.3030,4.60086,2470.8,2023-6-30T04:43:31Z
2023-06-30T02:44:19Z,42.805,6.029,13.3030,4.60085,2470.787,2023-6-30T04:46:34Z
2023-06-30T02:47:22Z,42.805,6.029,13.3028,4.60084,2470.8,2023-6-30T04:49:37Z
2023-06-30T02:50:25Z,42.805,6.029,13.3023,4.60084,2470.81,2023-6-30T04:52:40Z
2023-06-30T02:53:28Z,42.805,6.029,13.3029,4.60085,2470.787,2023-6-30T04:55:44Z
2023-06-30T02:56:31Z,42.805,6.029,13.3026,4.60084,2470.81,2023-6-30T04:58:47Z
2023-06-30T02:59:34Z,42.805,6.029,13.3024,4.60084,2470.81,2023-6-30T05:01:50Z
2023-06-30T03:02:37Z,42.805,6.029,13.3026,4.60085,2470.754,2023-6-30T05:04:53Z
2023-06-30T03:05:41Z,42.805,6.029,13.3022,4.60084,2470.824,2023-6-30T05:07:56Z
2023-06-30T03:08:44Z,42.805,6.029,13.3024,4.60085,2470.763,2023-6-30T05:10:59Z
2023-06-30T03:11:47Z,42.805,6.029,13.3024,4.60084,2470.8,2023-6-30T05:14:02Z
2023-06-30T03:14:50Z,42.805,6.029,13.3029,4.60084,2470.81,2023-6-30T05:17:05Z
2023-06-30T03:17:53Z,42.805,6.029,13.3027,4.60085,2470.787,2023-6-30T05:20:08Z
2023-06-30T03:20:56Z,42.805,6.029,13.3029,4.60085,2470.81,2023-6-30T05:23:11Z
2023-06-30T03:23:59Z,42.805,6.029,13.3024,4.60086,2470.8,2023-6-30T05:26:14Z
2023-06-30T03:27:02Z,42.805,6.029,13.3021,4.60084,2470.787,2023-6-30T05:29:17Z
2023-06-30T03:30:05Z,42.805,6.029,13.3030,4.60084,2470.81,2023-6-30T05:32:21Z
2023-06-30T03:33:08Z,42.805,6.029,13.3026,4.60085,2470.8,2023-6-30T05:35:24Z
2023-06-30T03:36:11Z,42.805,6.029,13.3025,4.60084,2470.8,2023-6-30T05:38:27Z
2023-06-30T03:39:14Z,42.805,6.029,13.3026,4.60085,2470.824,2023-6-30T05:41:30Z
2023-06-30T03:42:18Z,42.805,6.029,13.3029,4.60086,2470.8,2023-6-30T05:44:33Z
2023-06-30T03:45:21Z,42.805,6.029,13.3029,4.60084,2470.824,2023-6-30T05:47:36Z
2023-06-30T03:48:24Z,42.805,6.029,13.3028,4.60084,2470.824,2023-6-30T05:50:39Z
2023-06-30T03:51:27Z,42.805,6.029,13.3030,4.60085,2470.824,2023-6-30T05:53:42Z
2023-06-30T03:54:30Z,42.805,6.029,13.3026,4.60084,2470.824,2023-6-30T05:56:45Z
2023-06-30T03:57:33Z,42.805,6.029,13.3025,4.60084,2470.787,2023-6-30T05:59:48Z
2023-06-30T04:00:36Z,42.805,6.029,13.3026,4.60085,2470.787,2023-6-30T06:02:51Z
2023-06-30T04:03:39Z,42.805,6.029,13.3027,4.60085,2470.824,2023-6-30T06:05:55Z
2023-06-30T04:06:42Z,42.805,6.029,13.3027,4.60086,2470.8,2023-6-30T06:08:58Z
2023-06-30T04:09:45Z,42.805,6.029,13.3026,4.60084,2470.81,2023-6-30T06:12:01Z
2023-06-30T04:12:48Z,42.805,6.029,13.3028,4.60084,2470.787,2023-6-30T06:15:04Z
2023-06-30T04:15:51Z,42.805,6.029,13.3027,4.60084,2470.81,2023-6-30T06:18:07Z
2023-06-30T04:18:55Z,42.805,6.029,13.3023,4.60085,2470.787,2023-6-30T06:21:10Z
2023-06-30T04:21:58Z,42.805,6.029,13.3022,4.60084,2470.824,2023-6-30T06:24:13Z
2023-06-30T04:25:01Z,42.805,6.029,13.3026,4.60084,2470.81,2023-6-30T06:27:16Z
2023-06-30T04:28:04Z,42.805,6.029,13.3023,4.60084,2470.824,2023-6-30T06:30:19Z
2023-06-30T04:31:09Z,42.805,6.029,13.3026,4.60085,2470.787,2023-6-30T06:33:24Z
2023-06-30T04:34:12Z,42.805,6.029,13.3025,4.60086,2470.8,2023-6-30T06:36:27Z
2023-06-30T04:37:15Z,42.805,6.029,13.3031,4.60084,2470.81,2023-6-30T06:39:30Z
2023-06-30T04:40:18Z,42.805,6.029,13.3026,4.60084,2470.8,2023-6-30T06:42:33Z
2023-06-30T04:43:21Z,42.805,6.029,13.3022,4.60085,2470.763,2023-6-30T06:45:36Z
2023-06-30T04:46:24Z,42.805,6.029,13.3025,4.60084,2470.787,2023-6-30T06:48:40Z
2023-06-30T04:49:27Z,42.805,6.029,13.3025,4.60084,2470.81,2023-6-30T06:51:43Z
2023-06-30T04:52:30Z,42.805,6.029,13.3026,4.60085,2470.81,2023-6-30T06:54:46Z
2023-06-30T04:55:33Z,42.805,6.029,13.3026,4.60083,2470.81,2023-6-30T06:57:49Z
2023-06-30T04:58:37Z,42.805,6.029,13.3024,4.60084,2470.81,2023-6-30T07:00:52Z
2023-06-30T05:01:40Z,42.805,6.029,13.3027,4.60084,2470.81,2023-6-30T07:03:55Z
2023-06-30T05:04:43Z,42.805,6.029,13.3026,4.60083,2470.787,2023-6-30T07:06:58Z
2023-06-30T05:07:46Z,42.805,6.029,13.3025,4.60084,2470.81,2023-6-30T07:10:01Z
2023-06-30T05:10:49Z,42.805,6.029,13.3024,4.60084,2470.81,2023-6-30T07:13:04Z
2023-06-30T05:13:52Z,42.805,6.029,13.3030,4.60084,2470.81,2023-6-30T07:16:07Z
2023-06-30T05:16:55Z,42.805,6.029,13.3024,4.60084,2470.763,2023-6-30T07:19:10Z
2023-06-30T05:19:58Z,42.805,6.029,13.3025,4.60084,2470.81,2023-6-30T07:22:13Z
2023-06-30T05:23:01Z,42.805,6.029,13.3027,4.60084,2470.787,2023-6-30T07:25:17Z
2023-06-30T05:26:04Z,42.805,6.029,13.3026,4.60084,2470.787,2023-6-30T07:28:20Z
2023-06-30T05:29:07Z,42.805,6.029,13.3026,4.60084,2470.787,2023-6-30T07:31:23Z
2023-06-30T05:32:10Z,42.805,6.029,13.3026,4.60084,2470.763,2023-6-30T07:34:26Z
2023-06-30T05:35:13Z,42.805,6.029,13.3026,4.60084,2470.8,2023-6-30T07:37:29Z
2023-06-30T05:38:17Z,42.805,6.029,13.3026,4.60084,2470.777,2023-6-30T07:40:32Z
2023-06-30T05:41:20Z,42.805,6.029,13.3026,4.60084,2470.763,2023-6-30T07:43:35Z
2023-06-30T05:44:23Z,42.805,6.029,13.3025,4.60084,2470.763,2023-6-30T07:46:38Z
2023-06-30T05:47:26Z,42.805,6.029,13.3024,4.60084,2470.787,2023-6-30T07:49:41Z
2023-06-30T05:50:29Z,42.805,6.029,13.3028,4.60083,2470.74,2023-6-30T07:52:44Z
2023-06-30T05:53:32Z,42.805,6.029,13.3028,4.60084,2470.787,2023-6-30T07:55:47Z
2023-06-30T05:56:35Z,42.805,6.029,13.3025,4.60082,2470.763,2023-6-30T07:58:50Z
2023-06-30T05:59:38Z,42.805,6.029,13.3025,4.60084,2470.763,2023-6-30T08:01:54Z
2023-06-30T06:02:41Z,42.805,6.029,13.3022,4.60084,2470.763,2023-6-30T08:04:57Z
2023-06-30T06:05:44Z,42.805,6.029,13.3024,4.60082,2470.787,2023-6-30T08:08:00Z
2023-06-30T06:08:47Z,42.805,6.029,13.3030,4.60084,2470.787,2023-6-30T08:11:03Z
2023-06-30T06:11:50Z,42.805,6.029,13.3025,4.60084,2470.777,2023-6-30T08:14:06Z
2023-06-30T06:14:54Z,42.805,6.029,13.3025,4.60084,2470.763,2023-6-30T08:17:09Z
2023-06-30T06:17:57Z,42.805,6.029,13.3026,4.60084,2470.787,2023-6-30T08:20:12Z
2023-06-30T06:21:00Z,42.805,6.029,13.3026,4.60084,2470.777,2023-6-30T08:23:15Z
2023-06-30T06:24:03Z,42.805,6.029,13.3029,4.60082,2470.777,2023-6-30T08:26:18Z
2023-06-30T06:27:06Z,42.805,6.029,13.3029,4.60084,2470.74,2023-6-30T08:29:21Z
2023-06-30T06:30:09Z,42.805,6.029,13.3026,4.60084,2470.8,2023-6-30T08:32:24Z
2023-06-30T06:33:12Z,42.805,6.029,13.3027,4.60084,2470.763,2023-6-30T08:35:27Z
2023-06-30T06:36:15Z,42.805,6.029,13.3026,4.60084,2470.763,2023-6-30T08:38:30Z
2023-06-30T06:39:18Z,42.805,6.029,13.3028,4.60084,2470.777,2023-6-30T08:41:34Z
2023-06-30T06:42:21Z,42.805,6.029,13.3024,4.60084,2470.74,2023-6-30T08:44:37Z
2023-06-30T06:45:24Z,42.805,6.029,13.3024,4.60083,2470.777,2023-6-30T08:47:40Z
2023-06-30T06:48:27Z,42.805,6.029,13.3026,4.60081,2470.74,2023-6-30T08:50:43Z
2023-06-30T06:51:31Z,42.805,6.029,13.3028,4.60082,2470.754,2023-6-30T08:53:46Z
2023-06-30T06:54:34Z,42.805,6.029,13.3025,4.60083,2470.777,2023-6-30T08:56:49Z
2023-06-30T06:57:37Z,42.805,6.029,13.3025,4.60082,2470.74,2023-6-30T08:59:52Z
2023-06-30T07:00:40Z,42.805,6.029,13.3025,4.60082,2470.74,2023-6-30T09:02:55Z
2023-06-30T07:03:43Z,42.805,6.029,13.3031,4.60082,2470.74,2023-6-30T09:05:58Z
2023-06-30T07:06:46Z,42.805,6.029,13.3024,4.60084,2470.74,2023-6-30T09:09:01Z
2023-06-30T07:09:49Z,42.805,6.029,13.3024,4.60083,2470.754,2023-6-30T09:12:04Z
2023-06-30T07:12:52Z,42.805,6.029,13.3026,4.60084,2470.74,2023-6-30T09:15:07Z
2023-06-30T07:15:55Z,42.805,6.029,13.3022,4.60084,2470.74,2023-6-30T09:18:11Z
2023-06-30T07:18:58Z,42.805,6.029,13.3026,4.60084,2470.763,2023-6-30T09:21:14Z
2023-06-30T07:22:01Z,42.805,6.029,13.3026,4.60084,2470.754,2023-6-30T09:24:17Z
2023-06-30T07:25:04Z,42.805,6.029,13.3026,4.60083,2470.74,2023-6-30T09:27:20Z
2023-06-30T07:28:07Z,42.805,6.029,13.3023,4.60082,2470.74,2023-6-30T09:30:23Z
2023-06-30T07:31:11Z,42.805,6.029,13.3024,4.60083,2470.74,2023-6-30T09:33:26Z
2023-06-30T07:34:14Z,42.805,6.029,13.3025,4.60084,2470.693,2023-6-30T09:36:29Z
2023-06-30T07:37:17Z,42.805,6.029,13.3026,4.60084,2470.693,2023-6-30T09:39:32Z
2023-06-30T07:40:20Z,42.805,6.029,13.3024,4.60082,2470.754,2023-6-30T09:42:35Z
2023-06-30T07:43:23Z,42.805,6.029,13.3024,4.60084,2470.717,2023-6-30T09:45:38Z
2023-06-30T07:46:26Z,42.805,6.029,13.3022,4.60082,2470.74,2023-6-30T09:48:41Z
2023-06-30T07:49:29Z,42.805,6.029,13.3024,4.60083,2470.717,2023-6-30T09:51:44Z
2023-06-30T07:52:32Z,42.805,6.029,13.3025,4.60082,2470.717,2023-6-30T09:54:48Z
2023-06-30T07:55:35Z,42.805,6.029,13.3025,4.60082,2470.717,2023-6-30T09:57:51Z
2023-06-30T07:58:38Z,42.805,6.029,13.3024,4.60082,2470.717,2023-6-30T10:00:54Z
2023-06-30T08:01:41Z,42.805,6.029,13.3024,4.60084,2470.717,2023-6-30T10:03:57Z
2023-06-30T08:04:44Z,42.805,6.029,13.3024,4.60083,2470.693,2023-6-30T10:07:00Z
2023-06-30T08:07:48Z,42.805,6.029,13.3024,4.60084,2470.67,2023-6-30T10:10:03Z
2023-06-30T08:10:51Z,42.805,6.029,13.3026,4.60083,2470.693,2023-6-30T10:13:06Z
2023-06-30T08:13:54Z,42.805,6.029,13.3026,4.60084,2470.717,2023-6-30T10:16:09Z
2023-06-30T08:16:57Z,42.805,6.029,13.3026,4.60083,2470.73,2023-6-30T10:19:12Z
2023-06-30T08:20:00Z,42.805,6.029,13.3023,4.60081,2470.693,2023-6-30T10:22:15Z
2023-06-30T08:23:03Z,42.805,6.029,13.3025,4.60084,2470.693,2023-6-30T10:25:18Z
2023-06-30T08:26:06Z,42.805,6.029,13.3026,4.60082,2470.73,2023-6-30T10:28:21Z
2023-06-30T08:29:09Z,42.805,6.029,13.3024,4.60081,2470.684,2023-6-30T10:31:25Z
2023-06-30T08:32:11Z,42.805,6.029,13.3024,4.60082,2470.693,2023-6-30T10:34:27Z
2023-06-30T08:35:15Z,42.805,6.029,13.3024,4.60081,2470.67,2023-6-30T10:37:30Z
2023-06-30T08:38:18Z,42.805,6.029,13.3024,4.60081,2470.707,2023-6-30T10:40:33Z
2023-06-30T08:41:21Z,42.805,6.029,13.3022,4.60083,2470.67,2023-6-30T10:43:36Z
2023-06-30T08:44:24Z,42.805,6.029,13.3024,4.60082,2470.684,2023-6-30T10:46:39Z
2023-06-30T08:47:27Z,42.805,6.029,13.3023,4.60083,2470.693,2023-6-30T10:49:42Z
2023-06-30T08:50:30Z,42.805,6.029,13.3028,4.60081,2470.684,2023-6-30T10:52:45Z
2023-06-30T08:53:33Z,42.805,6.029,13.3024,4.60082,2470.707,2023-6-30T10:55:48Z
2023-06-30T08:56:36Z,42.805,6.029,13.3022,4.60081,2470.67,2023-6-30T10:58:52Z
2023-06-30T08:59:39Z,42.805,6.029,13.3022,4.60083,2470.67,2023-6-30T11:01:55Z
2023-06-30T09:02:42Z,42.805,6.029,13.3022,4.60083,2470.67,2023-6-30T11:04:58Z
2023-06-30T09:05:45Z,42.805,6.029,13.3024,4.60084,2470.646,2023-6-30T11:08:01Z
2023-06-30T09:08:48Z,42.805,6.029,13.3024,4.60082,2470.646,2023-6-30T11:11:04Z
2023-06-30T09:11:52Z,42.805,6.029,13.3022,4.60082,2470.67,2023-6-30T11:14:07Z
2023-06-30T09:14:55Z,42.805,6.029,13.3023,4.60084,2470.661,2023-6-30T11:17:10Z
2023-06-30T09:17:58Z,42.805,6.029,13.3026,4.60082,2470.67,2023-6-30T11:20:13Z
2023-06-30T09:21:01Z,42.805,6.029,13.3026,4.60083,2470.684,2023-6-30T11:23:16Z
2023-06-30T09:24:04Z,42.805,6.029,13.3026,4.60082,2470.624,2023-6-30T11:26:19Z
2023-06-30T09:27:07Z,42.805,6.029,13.3024,4.60084,2470.624,2023-6-30T11:29:22Z
2023-06-30T09:30:10Z,42.805,6.029,13.3029,4.60084,2470.646,2023-6-30T11:32:25Z
2023-06-30T09:33:13Z,42.805,6.029,13.3026,4.60084,2470.646,2023-6-30T11:35:29Z
2023-06-30T09:36:16Z,42.805,6.029,13.3025,4.60084,2470.67,2023-6-30T11:38:32Z
2023-06-30T09:39:19Z,42.805,6.029,13.3026,4.60083,2470.67,2023-6-30T11:41:35Z
2023-06-30T09:42:22Z,42.805,6.029,13.3024,4.60084,2470.646,2023-6-30T11:44:38Z
2023-06-30T09:45:25Z,42.805,6.029,13.3026,4.60083,2470.67,2023-6-30T11:47:41Z
2023-06-30T09:48:29Z,42.805,6.029,13.3026,4.60082,2470.624,2023-6-30T11:50:44Z
2023-06-30T09:51:32Z,42.805,6.029,13.3025,4.60084,2470.693,2023-6-30T11:53:47Z
2023-06-30T09:54:35Z,42.805,6.029,13.3024,4.60083,2470.646,2023-6-30T11:56:50Z
2023-06-30T09:57:38Z,42.805,6.029,13.3024,4.60082,2470.67,2023-6-30T11:59:53Z
2023-06-30T10:00:41Z,42.805,6.029,13.3023,4.60084,2470.646,2023-6-30T12:02:56Z
2023-06-30T10:03:44Z,42.805,6.029,13.3024,4.60084,2470.646,2023-6-30T12:05:59Z
2023-06-30T10:06:47Z,42.805,6.029,13.3024,4.60085,2470.661,2023-6-30T12:09:02Z
2023-06-30T10:09:50Z,42.805,6.029,13.3029,4.60082,2470.633,2023-6-30T12:12:06Z
2023-06-30T10:12:53Z,42.805,6.029,13.3026,4.60084,2470.67,2023-6-30T12:15:09Z
2023-06-30T10:15:56Z,42.805,6.029,13.3024,4.60082,2470.624,2023-6-30T12:18:12Z
2023-06-30T10:18:59Z,42.805,6.029,13.3026,4.60084,2470.646,2023-6-30T12:21:15Z
2023-06-30T10:22:02Z,42.805,6.029,13.3028,4.60084,2470.646,2023-6-30T12:24:18Z
2023-06-30T10:25:06Z,42.805,6.029,13.3024,4.60084,2470.67,2023-6-30T12:27:21Z
2023-06-30T10:28:09Z,42.805,6.029,13.3026,4.60084,2470.684,2023-6-30T12:30:24Z
2023-06-30T10:31:10Z,42.805,6.029,13.3026,4.60084,2470.646,2023-6-30T12:33:25Z
2023-06-30T10:34:13Z,42.805,6.029,13.3029,4.60084,2470.624,2023-6-30T12:36:29Z
2023-06-30T10:37:16Z,42.805,6.029,13.3024,4.60084,2470.624,2023-6-30T12:39:32Z
2023-06-30T10:40:19Z,42.805,6.029,13.3026,4.60084,2470.646,2023-6-30T12:42:35Z
2023-06-30T10:43:22Z,42.805,6.029,13.3027,4.60084,2470.646,2023-6-30T12:45:38Z
2023-06-30T10:46:25Z,42.805,6.029,13.3025,4.60084,2470.624,2023-6-30T12:48:41Z
2023-06-30T10:49:29Z,42.805,6.029,13.3024,4.60084,2470.646,2023-6-30T12:51:44Z
2023-06-30T10:52:32Z,42.805,6.029,13.3025,4.60084,2470.646,2023-6-30T12:54:47Z
2023-06-30T10:55:35Z,42.805,6.029,13.3028,4.60082,2470.6,2023-6-30T12:57:50Z
2023-06-30T10:58:38Z,42.805,6.029,13.3026,4.60084,2470.6,2023-6-30T13:00:53Z
2023-06-30T11:01:41Z,42.805,6.029,13.3025,4.60083,2470.646,2023-6-30T13:03:56Z
2023-06-30T11:04:44Z,42.805,6.029,13.3026,4.60084,2470.624,2023-6-30T13:06:59Z
2023-06-30T11:07:47Z,42.805,6.029,13.3025,4.60082,2470.624,2023-6-30T13:10:03Z
2023-06-30T11:10:50Z,42.805,6.029,13.3026,4.60084,2470.646,2023-6-30T13:13:06Z
2023-06-30T11:13:53Z,42.805,6.029,13.3024,4.60083,2470.646,2023-6-30T13:16:09Z
2023-06-30T11:16:56Z,42.805,6.029,13.3024,4.60084,2470.661,2023-6-30T13:19:12Z
2023-06-30T11:19:59Z,42.805,6.029,13.3024,4.60084,2470.637,2023-6-30T13:22:15Z
2023-06-30T11:23:03Z,42.805,6.029,13.3025,4.60084,2470.67,2023-6-30T13:25:18Z
2023-06-30T11:26:06Z,42.805,6.029,13.3026,4.60082,2470.624,2023-6-30T13:28:21Z
2023-06-30T11:29:09Z,42.805,6.029,13.3025,4.60084,2470.637,2023-6-30T13:31:24Z
2023-06-30T11:32:12Z,42.805,6.029,13.3027,4.60084,2470.624,2023-6-30T13:34:27Z
2023-06-30T11:35:15Z,42.805,6.029,13.3023,4.60084,2470.646,2023-6-30T13:37:30Z
2023-06-30T11:38:18Z,42.805,6.029,13.3030,4.60084,2470.684,2023-6-30T13:40:33Z
2023-06-30T11:41:21Z,42.805,6.029,13.3024,4.60084,2470.684,2023-6-30T13:43:36Z
2023-06-30T11:44:24Z,42.805,6.029,13.3027,4.60084,2470.624,2023-6-30T13:46:39Z
2023-06-30T11:47:27Z,42.805,6.029,13.3026,4.60084,2470.624,2023-6-30T13:49:43Z
2023-06-30T11:50:30Z,42.805,6.029,13.3026,4.60084,2470.67,2023-6-30T13:52:46Z
2023-06-30T11:53:33Z,42.805,6.029,13.3027,4.60083,2470.67,2023-6-30T13:55:49Z
2023-06-30T11:56:36Z,42.805,6.029,13.3027,4.60082,2470.67,2023-6-30T13:58:52Z
2023-06-30T11:59:39Z,42.805,6.029,13.3026,4.60081,2470.661,2023-6-30T14:01:55Z
2023-06-30T12:02:43Z,42.805,6.029,13.3024,4.60083,2470.6,2023-6-30T14:04:58Z
2023-06-30T12:05:46Z,42.805,6.029,13.3026,4.60084,2470.646,2023-6-30T14:08:01Z
2023-06-30T12:08:49Z,42.805,6.029,13.3024,4.60082,2470.646,2023-6-30T14:11:04Z
2023-06-30T12:11:52Z,42.805,6.029,13.3023,4.60083,2470.646,2023-6-30T14:14:07Z
2023-06-30T12:14:55Z,42.805,6.029,13.3029,4.60084,2470.661,2023-6-30T14:17:10Z
2023-06-30T12:17:58Z,42.805,6.029,13.3029,4.60084,2470.646,2023-6-30T14:20:13Z
2023-06-30T12:21:01Z,42.805,6.029,13.3024,4.60084,2470.646,2023-6-30T14:23:16Z
2023-06-30T12:24:04Z,42.805,6.029,13.3023,4.60084,2470.646,2023-6-30T14:26:20Z
2023-06-30T12:27:07Z,42.805,6.029,13.3026,4.60083,2470.637,2023-6-30T14:29:23Z
2023-06-30T12:30:10Z,42.805,6.029,13.3025,4.60082,2470.67,2023-6-30T14:32:26Z
2023-06-30T12:33:13Z,42.805,6.029,13.3024,4.60082,2470.646,2023-6-30T14:35:29Z
2023-06-30T12:36:17Z,42.805,6.029,13.3024,4.60083,2470.646,2023-6-30T14:38:32Z
2023-06-30T12:39:20Z,42.805,6.029,13.3026,4.60082,2470.661,2023-6-30T14:41:35Z
2023-06-30T12:42:23Z,42.805,6.029,13.3026,4.60084,2470.646,2023-6-30T14:44:38Z
2023-06-30T12:45:26Z,42.805,6.029,13.3024,4.60084,2470.684,2023-6-30T14:47:41Z
2023-06-30T12:48:29Z,42.805,6.029,13.3026,4.60083,2470.684,2023-6-30T14:50:44Z
2023-06-30T12:51:32Z,42.805,6.029,13.3023,4.60084,2470.67,2023-6-30T14:53:47Z
2023-06-30T12:54:35Z,42.805,6.029,13.3029,4.60083,2470.684,2023-6-30T14:56:50Z
2023-06-30T12:57:38Z,42.805,6.029,13.3028,4.60083,2470.707,2023-6-30T14:59:54Z
2023-06-30T13:00:41Z,42.805,6.029,13.3025,4.60081,2470.679,2023-6-30T15:02:57Z
2023-06-30T13:03:44Z,42.805,6.029,13.3021,4.60084,2470.67,2023-6-30T15:06:00Z
2023-06-30T13:06:47Z,42.805,6.029,13.3026,4.60084,2470.67,2023-6-30T15:09:03Z
2023-06-30T13:09:50Z,42.805,6.029,13.3026,4.60084,2470.693,2023-6-30T15:12:06Z
2023-06-30T13:12:54Z,42.805,6.029,13.3026,4.60084,2470.707,2023-6-30T15:15:09Z
2023-06-30T13:15:57Z,42.805,6.029,13.3026,4.60083,2470.684,2023-6-30T15:18:12Z
2023-06-30T13:19:00Z,42.805,6.029,13.3025,4.60084,2470.67,2023-6-30T15:21:15Z
2023-06-30T13:22:03Z,42.805,6.029,13.3026,4.60084,2470.67,2023-6-30T15:24:18Z
2023-06-30T13:25:06Z,42.805,6.029,13.3028,4.60082,2470.67,2023-6-30T15:27:21Z
2023-06-30T13:28:09Z,42.805,6.029,13.3024,4.60082,2470.693,2023-6-30T15:30:24Z
2023-06-30T13:31:12Z,42.805,6.029,13.3022,4.60082,2470.717,2023-6-30T15:33:27Z
2023-06-30T13:34:15Z,42.805,6.029,13.3023,4.60083,2470.717,2023-6-30T15:36:31Z
2023-06-30T13:37:18Z,42.805,6.029,13.3026,4.60084,2470.693,2023-6-30T15:39:34Z
2023-06-30T13:40:21Z,42.805,6.029,13.3024,4.60084,2470.693,2023-6-30T15:42:37Z
2023-06-30T13:43:24Z,42.805,6.029,13.3028,4.60085,2470.693,2023-6-30T15:45:40Z
2023-06-30T13:46:28Z,42.805,6.029,13.3026,4.60084,2470.693,2023-6-30T15:48:43Z
2023-06-30T13:49:31Z,42.805,6.029,13.3026,4.60084,2470.693,2023-6-30T15:51:46Z
2023-06-30T13:52:34Z,42.805,6.029,13.3028,4.60084,2470.693,2023-6-30T15:54:49Z
2023-06-30T13:55:37Z,42.805,6.029,13.3026,4.60083,2470.693,2023-6-30T15:57:52Z
2023-06-30T13:58:40Z,42.805,6.029,13.3025,4.60083,2470.73,2023-6-30T16:00:55Z
2023-06-30T14:01:43Z,42.805,6.029,13.3029,4.60082,2470.74,2023-6-30T16:03:58Z
2023-06-30T14:04:46Z,42.805,6.029,13.3029,4.60082,2470.73,2023-6-30T16:07:01Z
2023-06-30T14:07:49Z,42.805,6.029,13.3027,4.60084,2470.717,2023-6-30T16:10:04Z
2023-06-30T14:10:52Z,42.805,6.029,13.3025,4.60084,2470.717,2023-6-30T16:13:08Z
2023-06-30T14:13:55Z,42.805,6.029,13.3026,4.60084,2470.74,2023-6-30T16:16:11Z
2023-06-30T14:16:58Z,42.805,6.029,13.3020,4.60083,2470.73,2023-6-30T16:19:14Z
2023-06-30T14:20:01Z,42.805,6.029,13.3026,4.60081,2470.693,2023-6-30T16:22:17Z
2023-06-30T14:23:05Z,42.805,6.029,13.3024,4.60084,2470.717,2023-6-30T16:25:20Z
2023-06-30T14:26:08Z,42.805,6.029,13.3021,4.60082,2470.74,2023-6-30T16:28:23Z
2023-06-30T14:29:11Z,42.805,6.029,13.3029,4.60081,2470.74,2023-6-30T16:31:26Z
2023-06-30T14:32:14Z,42.805,6.029,13.3028,4.60083,2470.74,2023-6-30T16:34:29Z
2023-06-30T14:35:17Z,42.805,6.029,13.3025,4.60081,2470.73,2023-6-30T16:37:32Z
2023-06-30T14:38:20Z,42.805,6.029,13.3024,4.60084,2470.717,2023-6-30T16:40:35Z
2023-06-30T14:41:23Z,42.805,6.029,13.3023,4.60082,2470.74,2023-6-30T16:43:38Z
2023-06-30T14:44:26Z,42.805,6.029,13.3026,4.60082,2470.754,2023-6-30T16:46:42Z
2023-06-30T14:47:29Z,42.805,6.029,13.3026,4.60082,2470.763,2023-6-30T16:49:45Z
2023-06-30T14:50:32Z,42.805,6.029,13.3024,4.60082,2470.74,2023-6-30T16:52:48Z
2023-06-30T14:53:35Z,42.805,6.029,13.3026,4.60081,2470.754,2023-6-30T16:55:51Z
2023-06-30T14:56:38Z,42.805,6.029,13.3024,4.60081,2470.754,2023-6-30T16:58:54Z
2023-06-30T14:59:42Z,42.805,6.029,13.3023,4.60082,2470.777,2023-6-30T17:01:57Z
2023-06-30T15:02:45Z,42.805,6.029,13.3028,4.60084,2470.763,2023-6-30T17:05:00Z
2023-06-30T15:05:48Z,42.805,6.029,13.3021,4.60082,2470.777,2023-6-30T17:08:03Z
2023-06-30T15:08:51Z,42.805,6.029,13.3026,4.60082,2470.763,2023-6-30T17:11:06Z
2023-06-30T15:11:54Z,42.805,6.029,13.3021,4.60083,2470.74,2023-6-30T17:14:09Z
2023-06-30T15:14:57Z,42.805,6.029,13.3025,4.60082,2470.754,2023-6-30T17:17:12Z